GW0870 Weather Reports


time (UTC)temp
C
wind
direction
speed
KPH
gust
KPH
rain 1hr
cm
rain 24hr
cm
rain mn
cm
humidity
%
barometer
mb
20260904173059 35 0 0.0 6.4 0.00 0.00 0.00 52 1016.6
20260904171556 34 202 0.0 8.0 0.00 0.00 0.00 56 1016.7
20260904170058 34 151 1.6 8.0 0.00 0.00 0.00 58 1016.8
20260904164603 34 14 0.0 8.0 0.00 0.00 0.00 61 1016.8
20260904163059 33 341 0.0 6.4 0.00 0.00 0.00 61 1017.1
20260904161610 33 222 0.0 3.2 0.00 0.00 0.00 61 1017.3
20260904160054 32 196 1.6 8.0 0.00 0.00 0.00 64 1017.5
20260904154552 32 197 1.6 8.0 0.00 0.00 0.00 64 1017.7
20260904153101 31 0 3.2 8.0 0.00 0.00 0.00 67 1017.8
20260904151557 31 191 1.6 6.4 0.00 0.00 0.00 68 1017.7
20260904150059 31 0 0.0 4.8 0.00 0.00 0.00 69 1017.7
20260904144601 30 205 3.2 8.0 0.00 0.00 0.00 69 1017.7
20260904143100 30 190 1.6 6.4 0.00 0.00 0.00 72 1017.9
20260904141553 29 157 1.6 8.0 0.00 0.00 0.00 73 1017.8
20260904140058 29 161 3.2 8.0 0.00 0.00 0.00 76 1017.8
20260904134553 28 223 1.6 9.7 0.00 0.00 0.00 78 1017.6
20260904133057 27 233 1.6 9.7 0.00 0.00 0.00 80 1017.6
20260904131554 27 235 1.6 9.7 0.00 0.00 0.00 83 1017.6
20260904130053 26 180 0.0 4.8 0.00 0.00 0.00 87 1017.6
20260904124609 24 150 0.0 3.2 0.00 0.00 0.00 91 1017.6
20260904123056 23 0 0.0 1.6 0.00 0.00 0.00 93 1017.6
20260904121553 22 0 0.0 1.6 0.00 0.00 0.00 94 1017.7
20260904120107 22 0 0.0 0.0 0.00 0.00 0.00 94 1017.7
20260904114552 22 0 0.0 0.0 0.00 0.00 0.00 94 1017.6
20260904113056 21 0 0.0 0.0 0.00 0.00 0.00 94 1017.4
20260904111601 21 0 0.0 0.0 0.00 0.00 0.00 94 1017.4
20260904104556 21 0 0.0 0.0 0.00 0.00 0.00 93 1017.1
20260904103055 22 0 0.0 0.0 0.00 0.00 0.00 93 1016.9
20260904101605 22 0 0.0 0.0 0.00 0.00 0.00 93 1016.8
20260904100047 22 0 0.0 0.0 0.00 0.00 0.00 93 1016.8
20260904094553 22 0 0.0 0.0 0.00 0.00 0.00 93 1016.6
20260904093051 22 0 0.0 0.0 0.00 0.00 0.00 93 1016.5
20260904091551 22 0 0.0 0.0 0.00 0.00 0.00 93 1016.5
20260904090049 22 0 0.0 0.0 0.00 0.00 0.00 93 1016.4
20260904084552 22 0 0.0 0.0 0.00 0.00 0.00 93 1016.4
20260904083105 22 0 0.0 0.0 0.00 0.00 0.00 93 1016.3
20260904081548 22 0 0.0 0.0 0.00 0.00 0.00 93 1016.5
20260904080104 22 0 0.0 0.0 0.00 0.00 0.00 93 1016.5
20260904074557 22 0 0.0 0.0 0.00 0.00 0.00 93 1016.5
20260904073103 22 0 0.0 0.0 0.00 0.00 0.00 92 1016.5
20260904071553 23 0 0.0 0.0 0.00 0.00 0.00 92 1016.5
20260904070100 23 0 0.0 0.0 0.00 0.00 0.00 92 1016.6
20260904064607 23 0 0.0 0.0 0.00 0.00 0.00 92 1016.8
20260904063107 23 0 0.0 0.0 0.00 0.00 0.00 91 1017.1
20260904061552 23 0 0.0 0.0 0.00 0.00 0.00 91 1017.2
20260904060110 23 0 0.0 0.0 0.00 0.00 0.00 90 1017.2
20260904054555 23 0 0.0 0.0 0.00 0.00 0.00 90 1017.5
20260904053055 24 0 0.0 0.0 0.00 0.00 0.00 90 1017.5
20260904051552 24 0 0.0 0.0 0.00 0.00 0.00 90 1017.6
20260904050058 24 0 0.0 0.0 0.00 0.00 0.00 90 1017.6
20260904044553 24 0 0.0 0.0 0.00 0.00 0.00 90 1017.6
20260904043054 24 0 0.0 0.0 0.00 0.00 0.00 90 1017.5
20260904041600 24 0 0.0 0.0 0.00 0.00 0.00 90 1017.4
20260904040054 24 0 0.0 1.6 0.00 0.00 0.00 90 1017.5
20260904034552 24 0 0.0 0.0 0.00 0.00 0.00 90 1017.6
20260904033058 25 0 0.0 0.0 0.00 0.00 0.00 90 1017.5
20260904031553 25 0 0.0 0.0 0.00 0.00 0.00 90 1017.6
20260904030055 25 0 0.0 0.0 0.00 0.00 0.00 90 1017.7
20260904024601 25 0 0.0 0.0 0.00 0.00 0.00 89 1017.6
20260904023052 25 0 0.0 0.0 0.00 0.00 0.00 89 1017.7
20260904021557 25 0 0.0 0.0 0.00 0.00 0.00 88 1017.7
20260904020052 26 0 0.0 0.0 0.00 0.00 0.00 88 1017.7
20260904014553 26 0 0.0 0.0 0.00 0.00 0.00 87 1017.5
20260904013118 26 0 0.0 0.0 0.00 0.00 0.00 85 1017.4
20260904011554 26 0 0.0 0.0 0.00 0.00 0.00 85 1017.2
20260904010050 27 0 0.0 0.0 0.00 0.00 0.00 83 1017.0
20260904004556 27 0 0.0 0.0 0.00 0.00 0.00 82 1016.7
20260904003053 27 0 0.0 0.0 0.00 0.00 0.00 80 1016.4
20260904001609 28 0 0.0 0.0 0.00 0.00 0.00 79 1016.2
20260904000048 29 0 0.0 0.0 0.00 0.00 0.00 76 1016.0
20260903234556 30 0 0.0 0.0 0.00 0.00 0.00 72 1015.8
20260903233054 31 0 0.0 0.0 0.00 0.00 0.00 67 1015.9
20260903231608 32 0 0.0 1.6 0.00 0.00 0.00 65 1015.7
20260903230057 33 0 0.0 1.6 0.00 0.00 0.00 60 1015.7
20260903224603 34 0 0.0 1.6 0.00 0.00 0.00 55 1015.7
20260903223058 35 0 0.0 4.8 0.00 0.00 0.00 52 1015.6
20260903221555 35 0 0.0 1.6 0.00 0.00 0.00 53 1015.8
20260903214553 35 0 0.0 3.2 0.00 0.00 0.00 56 1015.8
20260903213110 35 0 0.0 3.2 0.00 0.00 0.00 52 1015.9
20260903211556 35 206 0.0 6.4 0.00 0.00 0.00 52 1016.0
20260903210058 34 32 1.6 6.4 0.00 0.00 0.00 54 1016.1
20260903204600 34 0 0.0 3.2 0.00 0.00 0.00 54 1016.1
20260903203058 34 0 0.0 4.8 0.00 0.00 0.00 52 1016.2
20260903201554 35 0 0.0 3.2 0.00 0.00 0.00 48 1016.2
20260903200056 36 0 0.0 9.7 0.00 0.00 0.00 46 1016.3
20260903194601 36 118 1.6 4.8 0.00 0.00 0.00 45 1016.5
20260903193057 36 228 0.0 4.8 0.00 0.00 0.00 45 1016.7
20260903191554 37 120 1.6 6.4 0.00 0.00 0.00 45 1016.9
20260903190054 36 102 1.6 9.7 0.00 0.00 0.00 49 1017.0
20260903184552 36 148 0.0 1.6 0.00 0.00 0.00 46 1017.1
20260903183052 36 165 0.0 4.8 0.00 0.00 0.00 49 1017.3
20260903181556 37 53 1.6 4.8 0.00 0.00 0.00 48 1017.5
20260903180109 35 0 1.6 6.4 0.00 0.00 0.00 53 1017.5
20260903174555 35 0 0.0 1.6 0.00 0.00 0.00 58 1017.8